Time,TemperatureF,DewpointF,PressureIn,WindDirection,WindDirectionDegrees,WindSpeedMPH,WindSpeedGustMPH,Humidity,HourlyPrecipIn,Conditions,Clouds,dailyrainin,SolarRadiationWatts/m^2,SoftwareType,DateUTC
2013-02-20 00:01:00,28.0,23.0,-100.00,NNW,329,2.0,7.0,80,0.00,,,0.12,0.000000,,2013-02-20 07:01:00,
2013-02-20 00:11:00,28.0,23.0,-100.00,NNW,329,2.0,7.0,80,0.00,,,0.12,0.000000,,2013-02-20 07:11:00,
2013-02-20 00:21:00,28.0,23.0,-100.00,NNW,329,2.0,7.0,80,0.00,,,0.12,0.000000,,2013-02-20 07:21:00,
2013-02-20 00:31:00,28.0,23.0,-100.00,NNW,329,2.0,7.0,80,0.00,,,0.12,0.000000,,2013-02-20 07:31:00,
2013-02-20 00:41:00,28.0,23.0,-100.00,NNW,329,2.0,7.0,80,0.00,,,0.12,0.000000,,2013-02-20 07:41:00,
2013-02-20 01:05:00,28.0,24.0,-100.00,North,359,3.0,8.0,83,0.00,,,0.12,0.000000,,2013-02-20 08:05:00,
2013-02-20 01:11:00,28.0,24.0,-100.00,North,359,3.0,8.0,83,0.00,,,0.12,0.000000,,2013-02-20 08:11:00,
2013-02-20 01:21:00,28.0,24.0,-100.00,North,359,3.0,8.0,83,0.00,,,0.12,0.000000,,2013-02-20 08:21:00,
2013-02-20 01:31:00,28.0,24.0,-100.00,North,359,3.0,8.0,83,0.00,,,0.12,0.000000,,2013-02-20 08:31:00,
2013-02-20 01:41:00,28.0,24.0,-100.00,North,359,3.0,8.0,83,0.00,,,0.12,0.000000,,2013-02-20 08:41:00,
2013-02-20 02:01:00,27.0,23.0,-100.00,ESE,110,3.0,11.0,86,0.00,,,0.12,0.000000,,2013-02-20 09:01:00,
2013-02-20 02:11:00,27.0,23.0,-100.00,ESE,110,3.0,11.0,86,0.00,,,0.12,0.000000,,2013-02-20 09:11:00,
2013-02-20 02:21:00,27.0,23.0,-100.00,ESE,110,3.0,11.0,86,0.00,,,0.12,0.000000,,2013-02-20 09:21:00,
2013-02-20 02:31:00,27.0,23.0,-100.00,ESE,110,3.0,11.0,86,0.00,,,0.12,0.000000,,2013-02-20 09:31:00,
2013-02-20 02:41:00,27.0,23.0,-100.00,ESE,110,3.0,11.0,86,0.00,,,0.12,0.000000,,2013-02-20 09:41:00,
2013-02-20 03:01:00,27.0,21.0,-100.00,NNE,16,3.0,7.0,79,0.00,,,0.12,0.000000,,2013-02-20 10:01:00,
2013-02-20 03:12:00,27.0,21.0,-100.00,NNE,16,3.0,7.0,79,0.00,,,0.12,0.000000,,2013-02-20 10:12:00,
2013-02-20 03:21:00,27.0,21.0,-100.00,NNE,16,3.0,7.0,79,0.00,,,0.12,0.000000,,2013-02-20 10:21:00,
2013-02-20 03:31:00,27.0,21.0,-100.00,NNE,16,3.0,7.0,79,0.00,,,0.12,0.000000,,2013-02-20 10:31:00,
2013-02-20 03:41:00,27.0,21.0,-100.00,NNE,16,3.0,7.0,79,0.00,,,0.12,0.000000,,2013-02-20 10:41:00,
2013-02-20 04:02:00,27.0,21.0,-100.00,ENE,63,2.0,4.0,77,0.00,,,0.12,0.000000,,2013-02-20 11:02:00,
2013-02-20 04:11:00,27.0,21.0,-100.00,ENE,63,2.0,4.0,77,0.00,,,0.12,0.000000,,2013-02-20 11:11:00,
2013-02-20 04:21:00,27.0,21.0,-100.00,ENE,63,2.0,4.0,77,0.00,,,0.12,0.000000,,2013-02-20 11:21:00,
2013-02-20 04:31:00,27.0,21.0,-100.00,ENE,63,2.0,4.0,77,0.00,,,0.12,0.000000,,2013-02-20 11:31:00,
2013-02-20 04:41:00,27.0,21.0,-100.00,ENE,63,2.0,4.0,77,0.00,,,0.12,0.000000,,2013-02-20 11:41:00,
2013-02-20 05:01:00,26.0,20.0,-100.00,East,88,2.0,3.0,78,0.00,,,0.12,0.000000,,2013-02-20 12:01:00,
2013-02-20 05:12:00,26.0,20.0,-100.00,East,88,2.0,3.0,78,0.00,,,0.12,0.000000,,2013-02-20 12:12:00,
2013-02-20 05:21:00,26.0,20.0,-100.00,East,88,2.0,3.0,78,0.00,,,0.12,0.000000,,2013-02-20 12:21:00,
2013-02-20 05:31:00,26.0,20.0,-100.00,East,88,2.0,3.0,78,0.00,,,0.12,0.000000,,2013-02-20 12:31:00,
2013-02-20 05:41:00,26.0,20.0,-100.00,East,88,2.0,3.0,78,0.00,,,0.12,0.000000,,2013-02-20 12:41:00,
2013-02-20 05:42:00,25.0,20.0,-100.00,NW,316,0.0,3.0,80,0.00,,,0.12,0.000000,,2013-02-20 12:42:00,
2013-02-20 06:01:00,25.0,20.0,-100.00,NW,316,0.0,3.0,80,0.00,,,0.12,0.000000,,2013-02-20 13:01:00,
2013-02-20 06:11:00,25.0,20.0,-100.00,NW,316,0.0,3.0,80,0.00,,,0.12,0.000000,,2013-02-20 13:11:00,
2013-02-20 06:22:00,25.0,20.0,-100.00,NW,316,0.0,3.0,80,0.00,,,0.12,0.000000,,2013-02-20 13:22:00,
2013-02-20 06:31:00,25.0,20.0,-100.00,NW,316,0.0,3.0,80,0.00,,,0.12,0.000000,,2013-02-20 13:31:00,
2013-02-20 06:42:00,26.0,19.0,-100.00,NE,40,3.0,5.0,73,0.00,,,0.12,0.000000,,2013-02-20 13:42:00,
2013-02-20 07:01:00,26.0,19.0,-100.00,NE,40,3.0,5.0,73,0.00,,,0.12,0.000000,,2013-02-20 14:01:00,
2013-02-20 07:11:00,26.0,19.0,-100.00,NE,40,3.0,5.0,73,0.00,,,0.12,0.000000,,2013-02-20 14:11:00,
2013-02-20 07:21:00,26.0,19.0,-100.00,NE,40,3.0,5.0,73,0.00,,,0.12,0.000000,,2013-02-20 14:21:00,
2013-02-20 07:32:00,26.0,19.0,-100.00,NE,40,3.0,5.0,73,0.00,,,0.12,0.000000,,2013-02-20 14:32:00,
2013-02-20 08:01:00,26.0,18.0,-100.00,NE,35,2.0,6.0,70,0.00,,,0.12,1.000000,,2013-02-20 15:01:00,
2013-02-20 08:11:00,26.0,18.0,-100.00,NE,35,2.0,6.0,70,0.00,,,0.12,1.000000,,2013-02-20 15:11:00,
2013-02-20 08:22:00,26.0,18.0,-100.00,NE,35,2.0,6.0,70,0.00,,,0.12,1.000000,,2013-02-20 15:22:00,
2013-02-20 08:32:00,26.0,18.0,-100.00,NE,35,2.0,6.0,70,0.00,,,0.12,1.000000,,2013-02-20 15:32:00,
2013-02-20 08:41:00,26.0,18.0,-100.00,NE,35,2.0,6.0,70,0.00,,,0.12,1.000000,,2013-02-20 15:41:00,
2013-02-20 09:01:00,32.0,20.0,-100.00,East,79,1.0,6.0,61,0.00,,,0.12,67.000000,,2013-02-20 16:01:00,
2013-02-20 10:01:00,36.0,21.0,-100.00,NW,319,1.0,7.0,53,-99.99,,,0.12,240.000000,,2013-02-20 17:01:00,
2013-02-20 11:02:00,40.0,20.0,-100.00,WNW,293,2.0,8.0,45,-99.99,,,0.12,385.000000,,2013-02-20 18:02:00,
2013-02-20 12:01:00,39.0,16.0,-100.00,NW,316,7.0,23.0,38,-99.99,,,0.07,512.000000,,2013-02-20 19:01:00,
2013-02-20 12:11:00,39.0,16.0,-100.00,NW,316,7.0,23.0,38,-99.99,,,0.07,512.000000,,2013-02-20 19:11:00,
2013-02-20 12:21:00,39.0,16.0,-100.00,NW,316,7.0,23.0,38,-99.99,,,0.07,512.000000,,2013-02-20 19:21:00,
2013-02-20 12:31:00,39.0,16.0,-100.00,NW,316,7.0,23.0,38,-99.99,,,0.07,512.000000,,2013-02-20 19:31:00,
2013-02-20 12:41:00,39.0,16.0,-100.00,NW,316,7.0,23.0,38,-99.99,,,0.07,512.000000,,2013-02-20 19:41:00,
2013-02-20 13:01:00,38.0,13.0,-100.00,NW,321,11.0,21.0,35,0.00,,,0.00,600.000000,,2013-02-20 20:01:00,
2013-02-20 13:11:00,38.0,13.0,-100.00,NW,321,11.0,21.0,35,0.00,,,0.00,600.000000,,2013-02-20 20:11:00,
2013-02-20 13:21:00,38.0,13.0,-100.00,NW,321,11.0,21.0,35,0.00,,,0.00,600.000000,,2013-02-20 20:21:00,
2013-02-20 13:31:00,38.0,13.0,-100.00,NW,321,11.0,21.0,35,0.00,,,0.00,600.000000,,2013-02-20 20:31:00,
2013-02-20 13:41:00,38.0,13.0,-100.00,NW,321,11.0,21.0,35,0.00,,,0.00,600.000000,,2013-02-20 20:41:00,
2013-02-20 14:01:00,39.0,14.0,-100.00,NW,313,11.0,21.0,35,0.00,,,0.00,637.000000,,2013-02-20 21:01:00,
2013-02-20 14:11:00,39.0,14.0,-100.00,NW,313,11.0,21.0,35,0.00,,,0.00,637.000000,,2013-02-20 21:11:00,
2013-02-20 14:21:00,39.0,14.0,-100.00,NW,313,11.0,21.0,35,0.00,,,0.00,637.000000,,2013-02-20 21:21:00,
2013-02-20 14:31:00,39.0,14.0,-100.00,NW,313,11.0,21.0,35,0.00,,,0.00,637.000000,,2013-02-20 21:31:00,
2013-02-20 14:41:00,39.0,14.0,-100.00,NW,313,11.0,21.0,35,0.00,,,0.00,637.000000,,2013-02-20 21:41:00,
2013-02-20 15:01:00,42.0,14.0,-100.00,NW,309,5.0,21.0,31,0.00,,,0.00,613.000000,,2013-02-20 22:01:00,
2013-02-20 15:11:00,42.0,14.0,-100.00,NW,309,5.0,21.0,31,0.00,,,0.00,613.000000,,2013-02-20 22:11:00,
2013-02-20 15:21:00,42.0,14.0,-100.00,NW,309,5.0,21.0,31,0.00,,,0.00,613.000000,,2013-02-20 22:21:00,
2013-02-20 15:31:00,42.0,14.0,-100.00,NW,309,5.0,21.0,31,0.00,,,0.00,613.000000,,2013-02-20 22:31:00,
2013-02-20 15:41:00,42.0,14.0,-100.00,NW,309,5.0,21.0,31,0.00,,,0.00,613.000000,,2013-02-20 22:41:00,
2013-02-20 15:42:00,42.0,14.0,-100.00,NW,316,3.0,17.0,32,0.00,,,0.00,527.000000,,2013-02-20 22:42:00,
2013-02-20 16:12:00,42.0,14.0,-100.00,NW,316,3.0,17.0,32,0.00,,,0.00,527.000000,,2013-02-20 23:12:00,
2013-02-20 16:22:00,42.0,14.0,-100.00,NW,316,3.0,17.0,32,0.00,,,0.00,527.000000,,2013-02-20 23:22:00,
2013-02-20 16:31:00,42.0,14.0,-100.00,NW,316,3.0,17.0,32,0.00,,,0.00,527.000000,,2013-02-20 23:31:00,
2013-02-20 17:02:00,38.0,12.0,-100.00,NW,326,6.0,17.0,34,0.00,,,0.00,360.000000,,2013-02-21 00:02:00,
2013-02-20 17:11:00,38.0,12.0,-100.00,NW,326,6.0,17.0,34,0.00,,,0.00,360.000000,,2013-02-21 00:11:00,
2013-02-20 17:21:00,38.0,12.0,-100.00,NW,326,6.0,17.0,34,0.00,,,0.00,360.000000,,2013-02-21 00:21:00,
2013-02-20 17:32:00,38.0,12.0,-100.00,NW,326,6.0,17.0,34,0.00,,,0.00,360.000000,,2013-02-21 00:32:00,
2013-02-20 17:41:00,38.0,12.0,-100.00,NW,326,6.0,17.0,34,0.00,,,0.00,360.000000,,2013-02-21 00:41:00,
2013-02-20 18:01:00,36.0,13.0,-100.00,NW,314,3.0,17.0,38,0.00,,,0.00,110.000000,,2013-02-21 01:01:00,
2013-02-20 18:11:00,36.0,13.0,-100.00,NW,314,3.0,17.0,38,0.00,,,0.00,110.000000,,2013-02-21 01:11:00,
2013-02-20 18:21:00,36.0,13.0,-100.00,NW,314,3.0,17.0,38,0.00,,,0.00,110.000000,,2013-02-21 01:21:00,
2013-02-20 18:32:00,36.0,13.0,-100.00,NW,314,3.0,17.0,38,0.00,,,0.00,110.000000,,2013-02-21 01:32:00,
2013-02-20 18:41:00,36.0,13.0,-100.00,NW,314,3.0,17.0,38,0.00,,,0.00,110.000000,,2013-02-21 01:41:00,
2013-02-20 19:01:00,31.0,13.0,-100.00,WSW,245,2.0,10.0,46,0.00,,,0.00,32.000000,,2013-02-21 02:01:00,
2013-02-20 19:11:00,31.0,13.0,-100.00,WSW,245,2.0,10.0,46,0.00,,,0.00,32.000000,,2013-02-21 02:11:00,
2013-02-20 19:21:00,31.0,13.0,-100.00,WSW,245,2.0,10.0,46,0.00,,,0.00,32.000000,,2013-02-21 02:21:00,
2013-02-20 19:32:00,31.0,13.0,-100.00,WSW,245,2.0,10.0,46,0.00,,,0.00,32.000000,,2013-02-21 02:32:00,
2013-02-20 19:41:00,31.0,13.0,-100.00,WSW,245,2.0,10.0,46,0.00,,,0.00,32.000000,,2013-02-21 02:41:00,
2013-02-20 20:01:00,30.0,13.0,-100.00,West,269,2.0,8.0,49,0.00,,,0.00,0.000000,,2013-02-21 03:01:00,
2013-02-20 20:12:00,30.0,13.0,-100.00,West,269,2.0,8.0,49,0.00,,,0.00,0.000000,,2013-02-21 03:12:00,
2013-02-20 20:21:00,30.0,13.0,-100.00,West,269,2.0,8.0,49,0.00,,,0.00,0.000000,,2013-02-21 03:21:00,
2013-02-20 20:31:00,30.0,13.0,-100.00,West,269,2.0,8.0,49,0.00,,,0.00,0.000000,,2013-02-21 03:31:00,
2013-02-20 20:41:00,30.0,13.0,-100.00,West,269,2.0,8.0,49,0.00,,,0.00,0.000000,,2013-02-21 03:41:00,
2013-02-20 21:01:00,29.0,14.0,-100.00,South,190,1.0,5.0,54,0.00,,,0.00,0.000000,,2013-02-21 04:01:00,
2013-02-20 21:11:00,29.0,14.0,-100.00,South,190,1.0,5.0,54,0.00,,,0.00,0.000000,,2013-02-21 04:11:00,
2013-02-20 21:21:00,29.0,14.0,-100.00,South,190,1.0,5.0,54,0.00,,,0.00,0.000000,,2013-02-21 04:21:00,
2013-02-20 21:31:00,29.0,14.0,-100.00,South,190,1.0,5.0,54,0.00,,,0.00,0.000000,,2013-02-21 04:31:00,
2013-02-20 21:41:00,29.0,14.0,-100.00,South,190,1.0,5.0,54,0.00,,,0.00,0.000000,,2013-02-21 04:41:00,
2013-02-20 21:42:00,27.0,14.0,-100.00,West,263,1.0,6.0,57,0.00,,,0.00,0.000000,,2013-02-21 04:42:00,
2013-02-20 22:02:00,27.0,14.0,-100.00,West,263,1.0,6.0,57,0.00,,,0.00,0.000000,,2013-02-21 05:02:00,
2013-02-20 22:12:00,27.0,14.0,-100.00,West,263,1.0,6.0,57,0.00,,,0.00,0.000000,,2013-02-21 05:12:00,
2013-02-20 22:22:00,27.0,14.0,-100.00,West,263,1.0,6.0,57,0.00,,,0.00,0.000000,,2013-02-21 05:22:00,
2013-02-20 22:32:00,27.0,14.0,-100.00,West,263,1.0,6.0,57,0.00,,,0.00,0.000000,,2013-02-21 05:32:00,
2013-02-20 23:01:00,27.0,16.0,-100.00,NNE,21,1.0,6.0,62,0.00,,,0.00,0.000000,,2013-02-21 06:01:00,
2013-02-20 23:11:00,27.0,16.0,-100.00,NNE,21,1.0,6.0,62,0.00,,,0.00,0.000000,,2013-02-21 06:11:00,
2013-02-20 23:21:00,27.0,16.0,-100.00,NNE,21,1.0,6.0,62,0.00,,,0.00,0.000000,,2013-02-21 06:21:00,
2013-02-20 23:31:00,27.0,16.0,-100.00,NNE,21,1.0,6.0,62,0.00,,,0.00,0.000000,,2013-02-21 06:31:00,
2013-02-20 23:41:00,27.0,16.0,-100.00,NNE,21,1.0,6.0,62,0.00,,,0.00,0.000000,,2013-02-21 06:41:00,